Precipitable_Water
1.35 1.36 1.36 1.36 1.44 1.42 1.40 1.40 1.38 1.35 1.35 1.38 1.37 1.36 1.35 1.42 1.45 1.42 1.36 1.28 1.25 1.20 1.21 1.18 1.20 1.24 1.26 1.29 1.31 1.29 1.33 1.36 1.33 1.28 1.26 1.23 1.22 1.20 1.19 1.15 1.10 1.09 1.05 1.02 1.02 1.01 1.02 1.00 0.98 0.94 0.94 0.96 0.93 0.88 0.85 0.83 0.81 0.79 0.79 0.77 0.75 0.70 0.67 0.64 0.64 0.62 0.61 0.61 0.61 0.63 0.63 0.66 0.68 0.68 0.69 0.68 0.68 0.70 0.71 0.72 0.72 0.71 0.70 0.70 0.69
1.32 1.39 1.32 1.31 1.36 1.36 1.37 1.34 1.36 1.34 1.34 1.39 1.40 1.39 1.38 1.41 1.41 1.39 1.37 1.36 1.32 1.23 1.18 1.24 1.22 1.25 1.28 1.28 1.32 1.34 1.40 1.39 1.36 1.40 1.35 1.31 1.24 1.20 1.17 1.15 1.12 1.09 1.06 1.02 1.01 1.00 1.00 1.02 1.00 0.95 0.91 0.95 0.99 0.94 0.91 0.89 0.86 0.84 0.83 0.82 0.80 0.78 0.73 0.69 0.65 0.63 0.61 0.61 0.62 0.62 0.62 0.61 0.64 0.65 0.67 0.68 0.69 0.69 0.70 0.71 0.71 0.71 0.71 0.71 0.71
1.31 1.30 1.29 1.31 1.33 1.34 1.38 1.42 1.40 1.43 1.40 1.34 1.40 1.37 1.36 1.37 1.36 1.36 1.36 1.37 1.35 1.26 1.23 1.22 1.20 1.20 1.32 1.32 1.38 1.36 1.40 1.42 1.45 1.45 1.41 1.33 1.24 1.21 1.18 1.18 1.13 1.10 1.05 1.02 1.00 1.01 1.00 1.01 1.00 0.96 0.91 0.93 1.00 0.97 0.93 0.88 0.91 0.89 0.88 0.86 0.86 0.83 0.80 0.76 0.73 0.67 0.64 0.62 0.61 0.60 0.59 0.58 0.56 0.60 0.61 0.64 0.66 0.67 0.69 0.71 0.70 0.70 0.71 0.70 0.70
1.33 1.34 1.33 1.32 1.31 1.35 1.34 1.34 1.37 1.39 1.35 1.34 1.34 1.35 1.34 1.38 1.37 1.40 1.40 1.39 1.33 1.26 1.27 1.23 1.19 1.23 1.32 1.32 1.34 1.36 1.42 1.48 1.46 1.44 1.44 1.33 1.30 1.30 1.28 1.25 1.21 1.16 1.11 1.06 1.02 0.99 0.98 0.98 0.99 0.98 0.94 0.93 0.99 0.95 0.93 0.91 0.90 0.91 0.92 0.91 0.90 0.87 0.86 0.82 0.77 0.75 0.69 0.67 0.66 0.63 0.59 0.61 0.59 0.54 0.57 0.57 0.60 0.64 0.65 0.67 0.68 0.70 0.71 0.71 0.70
1.31 1.32 1.34 1.36 1.39 1.32 1.30 1.32 1.32 1.32 1.36 1.37 1.36 1.38 1.37 1.37 1.36 1.42 1.39 1.36 1.30 1.28 1.27 1.31 1.29 1.29 1.34 1.35 1.37 1.36 1.46 1.45 1.42 1.34 1.34 1.43 1.42 1.36 1.33 1.29 1.26 1.22 1.19 1.12 1.05 1.02 0.99 0.98 0.97 0.98 0.97 0.98 0.95 0.96 0.95 0.89 0.87 0.91 0.93 0.92 0.90 0.89 0.89 0.88 0.83 0.79 0.76 0.73 0.70 0.69 0.66 0.66 0.64 0.60 0.55 0.58 0.57 0.56 0.60 0.62 0.65 0.68 0.69 0.68 0.69
1.29 1.29 1.37 1.41 1.24 1.31 1.31 1.33 1.34 1.35 1.38 1.36 1.33 1.38 1.36 1.34 1.33 1.36 1.34 1.29 1.28 1.28 1.25 1.30 1.30 1.31 1.35 1.34 1.37 1.37 1.39 1.43 1.40 1.31 1.39 1.44 1.42 1.39 1.35 1.35 1.32 1.30 1.29 1.26 1.20 1.14 1.09 1.07 1.05 1.03 1.00 0.97 0.95 0.94 0.93 0.96 0.95 0.95 0.98 0.97 0.94 0.93 0.94 0.93 0.91 0.88 0.82 0.78 0.73 0.72 0.70 0.69 0.67 0.65 0.61 0.59 0.57 0.56 0.55 0.57 0.61 0.64 0.66 0.66 0.66
1.28 1.28 1.28 1.30 1.29 1.27 1.31 1.38 1.40 1.38 1.35 1.36 1.37 1.33 1.36 1.35 1.37 1.32 1.34 1.30 1.30 1.29 1.28 1.29 1.30 1.30 1.39 1.42 1.40 1.40 1.45 1.46 1.50 1.42 1.40 1.41 1.42 1.46 1.46 1.41 1.41 1.39 1.37 1.36 1.34 1.27 1.21 1.19 1.17 1.15 1.13 1.08 1.04 1.01 1.01 1.03 1.04 1.02 1.01 1.04 1.03 1.02 1.03 1.00 0.96 0.91 0.87 0.83 0.78 0.77 0.75 0.72 0.70 0.68 0.66 0.61 0.58 0.54 0.56 0.56 0.58 0.60 0.61 0.62 0.63
1.24 1.24 1.20 1.18 1.16 1.24 1.26 1.32 1.39 1.38 1.37 1.35 1.34 1.28 1.30 1.33 1.36 1.34 1.26 1.25 1.24 1.23 1.26 1.28 1.35 1.47 1.54 1.50 1.50 1.39 1.39 1.44 1.46 1.38 1.45 1.46 1.46 1.47 1.46 1.46 1.51 1.52 1.42 1.37 1.36 1.35 1.30 1.28 1.25 1.25 1.26 1.23 1.20 1.17 1.15 1.14 1.13 1.12 1.11 1.12 1.13 1.11 1.08 1.07 1.05 1.00 0.97 0.94 0.90 0.86 0.81 0.76 0.73 0.69 0.68 0.65 0.62 0.60 0.55 0.59 0.59 0.59 0.60 0.62 0.62
1.13 1.16 1.13 1.21 1.21 1.31 1.33 1.29 1.34 1.33 1.33 1.31 1.28 1.28 1.25 1.24 1.27 1.32 1.29 1.21 1.21 1.21 1.24 1.31 1.33 1.40 1.46 1.45 1.41 1.47 1.41 1.35 1.37 1.37 1.42 1.41 1.44 1.49 1.50 1.50 1.50 1.50 1.47 1.48 1.42 1.36 1.36 1.34 1.34 1.33 1.30 1.28 1.27 1.27 1.29 1.29 1.30 1.30 1.24 1.25 1.25 1.21 1.17 1.14 1.12 1.11 1.07 1.03 0.99 0.95 0.91 0.86 0.81 0.75 0.70 0.69 0.67 0.64 0.63 0.62 0.64 0.62 0.59 0.62 0.62
1.12 1.13 1.15 1.27 1.27 1.30 1.31 1.26 1.25 1.26 1.27 1.26 1.26 1.30 1.27 1.24 1.19 1.24 1.27 1.25 1.22 1.19 1.20 1.27 1.31 1.29 1.36 1.32 1.39 1.39 1.35 1.38 1.35 1.37 1.37 1.36 1.35 1.37 1.42 1.44 1.46 1.46 1.47 1.49 1.46 1.44 1.38 1.36 1.37 1.36 1.37 1.35 1.33 1.32 1.33 1.34 1.34 1.33 1.33 1.32 1.31 1.32 1.32 1.32 1.29 1.24 1.20 1.18 1.17 1.12 1.03 0.97 0.94 0.91 0.89 0.85 0.81 0.76 0.73 0.70 0.67 0.67 0.63 0.63 0.65
1.19 1.20 1.18 1.17 1.25 1.27 1.23 1.20 1.20 1.19 1.21 1.18 1.19 1.22 1.22 1.21 1.18 1.19 1.23 1.24 1.25 1.25 1.22 1.28 1.27 1.26 1.31 1.27 1.26 1.29 1.31 1.33 1.35 1.36 1.37 1.31 1.29 1.33 1.37 1.37 1.38 1.37 1.41 1.44 1.44 1.42 1.38 1.39 1.39 1.42 1.42 1.41 1.39 1.37 1.36 1.35 1.34 1.34 1.34 1.33 1.33 1.33 1.32 1.32 1.32 1.32 1.31 1.30 1.27 1.26 1.25 1.17 1.08 1.02 0.99 0.96 0.93 0.90 0.85 0.80 0.76 0.75 0.74 0.69 0.67
1.29 1.27 1.18 1.15 1.21 1.21 1.17 1.17 1.19 1.15 1.11 1.08 1.09 1.13 1.13 1.14 1.15 1.16 1.14 1.16 1.24 1.25 1.30 1.33 1.30 1.32 1.34 1.20 1.21 1.26 1.27 1.31 1.36 1.35 1.37 1.35 1.27 1.29 1.30 1.36 1.38 1.37 1.38 1.41 1.44 1.43 1.41 1.40 1.41 1.40 1.44 1.42 1.43 1.41 1.40 1.39 1.37 1.36 1.37 1.37 1.36 1.35 1.33 1.33 1.33 1.34 1.35 1.35 1.33 1.30 1.30 1.30 1.29 1.21 1.13 1.05 1.01 0.98 0.95 0.90 0.86 0.84 0.82 0.78 0.72
1.27 1.28 1.23 1.14 1.18 1.20 1.21 1.21 1.20 1.15 1.08 1.10 1.11 1.11 1.13 1.13 1.13 1.13 1.09 1.08 1.13 1.25 1.29 1.29 1.21 1.21 1.32 1.16 1.13 1.28 1.26 1.28 1.29 1.31 1.31 1.32 1.34 1.30 1.29 1.31 1.41 1.42 1.44 1.45 1.44 1.44 1.45 1.43 1.42 1.42 1.44 1.43 1.40 1.42 1.42 1.39 1.38 1.38 1.38 1.37 1.39 1.40 1.38 1.37 1.35 1.35 1.33 1.33 1.32 1.34 1.34 1.33 1.33 1.32 1.30 1.24 1.16 1.12 1.09 1.05 1.00 0.96 0.91 0.87 0.83
1.25 1.22 1.25 1.20 1.12 1.11 1.16 1.14 1.14 1.15 1.13 1.14 1.14 1.13 1.13 1.13 1.14 1.09 1.16 1.11 1.09 1.23 1.28 1.24 1.16 1.11 1.06 1.02 1.03 1.16 1.20 1.23 1.23 1.28 1.31 1.34 1.34 1.32 1.33 1.29 1.34 1.38 1.39 1.39 1.39 1.40 1.37 1.39 1.40 1.41 1.43 1.43 1.45 1.43 1.36 1.29 1.28 1.28 1.28 1.29 1.32 1.37 1.39 1.38 1.35 1.33 1.33 1.33 1.32 1.33 1.33 1.34 1.34 1.34 1.34 1.34 1.32 1.26 1.23 1.20 1.16 1.08 1.02 0.98 0.92
1.16 1.22 1.21 1.19 1.18 1.14 1.11 1.12 1.13 1.12 1.07 1.07 1.11 1.13 1.10 1.10 1.13 1.07 1.07 1.11 1.12 1.22 1.25 1.24 1.10 1.16 1.15 1.01 0.93 0.93 1.07 1.14 1.20 1.24 1.29 1.30 1.31 1.30 1.37 1.33 1.29 1.38 1.39 1.38 1.38 1.36 1.37 1.38 1.37 1.40 1.41 1.38 1.39 1.38 1.35 1.30 1.30 1.27 1.25 1.21 1.23 1.27 1.30 1.35 1.39 1.39 1.37 1.36 1.35 1.35 1.34 1.32 1.32 1.34 1.36 1.36 1.36 1.35 1.32 1.28 1.26 1.21 1.14 1.09 1.04
1.10 1.08 1.14 1.20 1.14 1.17 1.18 1.16 1.08 1.12 1.11 1.09 1.10 1.08 1.03 1.05 1.08 1.09 1.08 0.99 1.04 1.13 1.26 1.24 1.17 1.07 0.92 0.93 0.98 0.97 0.86 0.94 1.06 1.20 1.29 1.29 1.29 1.34 1.37 1.28 1.34 1.42 1.43 1.31 1.29 1.30 1.30 1.36 1.36 1.36 1.35 1.33 1.38 1.35 1.30 1.31 1.26 1.22 1.14 1.11 1.14 1.18 1.22 1.27 1.30 1.34 1.37 1.38 1.38 1.38 1.38 1.36 1.35 1.35 1.35 1.36 1.36 1.35 1.35 1.33 1.30 1.28 1.23 1.19 1.14
0.97 1.02 1.03 1.02 1.05 1.06 1.10 1.09 1.14 1.14 1.11 1.07 1.04 1.07 1.08 1.06 1.06 1.06 1.05 0.99 0.96 1.04 1.18 1.24 1.17 1.21 1.08 0.93 0.88 0.85 0.86 0.98 1.07 1.07 1.21 1.21 1.23 1.28 1.30 1.29 1.32 1.35 1.33 1.27 1.29 1.27 1.27 1.25 1.26 1.24 1.25 1.25 1.24 1.22 1.19 1.08 1.05 1.04 1.00 1.00 1.03 1.08 1.13 1.19 1.22 1.26 1.30 1.35 1.39 1.40 1.39 1.37 1.36 1.36 1.39 1.38 1.37 1.37 1.36 1.34 1.32 1.31 1.30 1.26 1.21
1.02 0.97 0.95 0.85 0.83 0.89 0.91 0.88 1.03 1.05 1.08 1.06 1.07 1.09 1.10 1.07 1.12 1.12 1.07 1.10 1.06 1.00 1.07 1.22 1.19 1.18 1.17 1.13 1.07 0.89 0.87 1.00 0.95 0.83 1.12 1.21 1.21 1.26 1.26 1.23 1.27 1.25 1.26 1.22 1.19 1.19 1.19 1.11 1.12 1.13 1.15 1.12 1.09 1.05 0.99 0.95 0.96 0.98 0.96 0.96 0.97 1.01 1.06 1.11 1.17 1.22 1.27 1.27 1.28 1.30 1.34 1.37 1.39 1.39 1.39 1.40 1.41 1.42 1.42 1.41 1.40 1.38 1.37 1.33 1.28
0.90 0.90 0.88 0.89 0.94 0.86 0.85 0.93 0.84 0.85 0.95 1.02 1.07 1.08 1.09 1.12 1.16 1.16 1.09 1.11 1.13 1.01 0.97 0.95 1.10 1.13 1.13 1.14 1.09 1.05 1.04 0.95 0.87 0.90 0.82 0.99 1.11 1.07 1.09 1.13 1.16 1.17 1.13 1.10 1.07 1.07 1.08 1.08 1.10 1.09 1.07 1.06 0.99 0.95 0.94 0.93 0.93 0.91 0.90 0.90 0.90 0.93 0.98 1.03 1.07 1.12 1.17 1.22 1.28 1.29 1.28 1.30 1.32 1.34 1.36 1.38 1.40 1.42 1.46 1.47 1.46 1.47 1.46 1.43 1.41
0.88 0.91 0.94 0.89 0.91 0.89 0.85 0.82 0.87 0.83 0.87 0.84 0.98 1.07 1.07 1.10 1.14 1.12 1.10 1.13 1.15 1.07 1.00 1.04 1.02 1.01 1.12 1.10 1.10 1.10 1.09 1.07 1.04 0.92 0.84 0.80 0.89 1.04 1.07 1.10 1.09 1.06 1.01 1.01 1.04 1.04 1.04 1.04 1.03 1.03 1.02 0.96 0.92 0.89 0.84 0.81 0.81 0.81 0.82 0.83 0.84 0.86 0.88 0.90 0.94 0.99 1.05 1.09 1.12 1.15 1.16 1.17 1.19 1.21 1.24 1.28 1.31 1.34 1.39 1.44 1.46 1.50 1.46 1.47 1.47
0.89 0.78 0.89 0.89 0.87 0.82 0.87 0.84 0.86 0.87 0.87 0.86 0.96 0.99 1.03 1.02 1.05 1.01 1.03 1.09 1.07 1.08 1.06 1.00 1.07 1.07 1.08 1.10 1.08 1.04 1.05 1.06 1.07 1.02 0.89 0.83 0.87 0.93 0.96 1.03 1.01 0.97 0.96 0.97 0.98 0.99 1.01 0.96 0.92 0.89 0.86 0.81 0.81 0.79 0.76 0.75 0.75 0.75 0.76 0.76 0.75 0.75 0.75 0.76 0.80 0.85 0.89 0.94 0.98 1.01 1.03 1.06 1.09 1.13 1.16 1.19 1.21 1.27 1.31 1.34 1.36 1.41 1.45 1.46 1.49
0.92 0.95 0.92 0.87 0.87 0.88 0.85 0.87 0.88 0.87 0.84 0.87 1.05 1.06 1.08 1.03 1.00 1.00 0.99 1.03 1.06 1.12 1.04 1.01 1.03 1.05 1.08 1.12 1.07 1.01 1.01 1.02 1.04 1.02 0.99 0.98 0.89 0.91 0.93 0.85 0.80 0.87 0.89 0.83 0.79 0.81 0.81 0.82 0.77 0.69 0.63 0.60 0.57 0.58 0.59 0.60 0.59 0.59 0.59 0.59 0.60 0.59 0.60 0.62 0.64 0.67 0.71 0.78 0.88 0.93 0.96 0.98 1.01 1.05 1.09 1.12 1.12 1.17 1.25 1.34 1.41 1.44 1.48 1.47 1.49
0.83 0.91 0.87 0.81 0.82 0.87 0.86 0.90 0.88 0.88 0.85 0.82 0.88 0.93 0.96 1.03 1.05 0.99 0.97 0.96 0.96 0.97 1.00 0.97 0.97 1.01 1.06 1.11 1.08 1.04 1.00 0.94 0.97 0.97 0.95 0.95 0.93 0.88 0.92 0.91 0.81 0.74 0.75 0.75 0.72 0.68 0.66 0.67 0.63 0.59 0.55 0.56 0.54 0.49 0.46 0.47 0.48 0.49 0.49 0.49 0.49 0.50 0.49 0.49 0.49 0.51 0.55 0.62 0.72 0.80 0.88 0.92 0.95 0.97 0.97 1.03 1.08 1.11 1.15 1.19 1.25 1.31 1.39 1.46 1.51
0.92 0.85 0.84 0.82 0.84 0.83 0.89 0.91 0.89 0.85 0.81 0.82 0.84 0.84 0.86 0.92 0.97 1.00 0.96 0.92 0.96 0.92 0.97 0.95 0.96 1.03 1.08 1.16 1.13 1.08 1.06 1.05 1.06 1.05 1.00 0.97 0.90 0.86 0.85 0.82 0.73 0.66 0.68 0.68 0.62 0.58 0.55 0.53 0.55 0.55 0.53 0.51 0.49 0.45 0.41 0.39 0.41 0.42 0.42 0.41 0.40 0.39 0.38 0.37 0.37 0.37 0.38 0.42 0.48 0.58 0.69 0.80 0.87 0.92 0.94 0.94 0.97 1.00 1.00 0.98 1.00 1.06 1.15 1.24 1.32
0.93 0.84 0.80 0.78 0.80 0.85 0.85 0.84 0.83 0.85 0.81 0.77 0.76 0.78 0.81 0.83 0.88 0.91 0.92 0.92 0.95 0.96 0.95 0.98 1.04 1.08 1.08 1.15 1.17 1.12 1.14 1.12 1.09 1.05 1.06 1.01 0.95 0.84 0.84 0.69 0.51 0.49 0.50 0.50 0.44 0.47 0.48 0.49 0.51 0.51 0.51 0.49 0.47 0.45 0.44 0.38 0.37 0.37 0.36 0.35 0.35 0.35 0.35 0.36 0.35 0.34 0.34 0.33 0.33 0.35 0.39 0.46 0.58 0.69 0.78 0.82 0.84 0.83 0.81 0.77 0.77 0.82 0.89 0.98 1.05
0.86 0.80 0.78 0.82 0.80 0.80 0.78 0.81 0.84 0.82 0.79 0.77 0.77 0.79 0.78 0.78 0.84 0.89 0.92 0.93 0.97 0.98 0.97 1.01 1.05 1.06 1.07 1.04 1.09 1.08 1.10 1.07 1.04 1.04 1.01 0.94 0.87 0.80 0.70 0.61 0.54 0.49 0.51 0.47 0.42 0.36 0.34 0.38 0.41 0.43 0.47 0.47 0.49 0.49 0.46 0.40 0.43 0.47 0.44 0.42 0.38 0.36 0.37 0.37 0.37 0.36 0.36 0.36 0.35 0.35 0.34 0.34 0.35 0.37 0.42 0.47 0.51 0.53 0.53 0.54 0.54 0.56 0.60 0.66 0.74
0.85 0.81 0.79 0.76 0.76 0.78 0.78 0.79 0.81 0.75 0.71 0.71 0.72 0.72 0.73 0.74 0.78 0.86 0.88 0.91 0.94 0.96 0.93 0.91 0.89 0.90 0.89 0.86 0.85 0.93 0.93 0.99 0.99 0.90 0.88 0.87 0.85 0.73 0.64 0.49 0.50 0.51 0.46 0.44 0.40 0.34 0.32 0.35 0.42 0.45 0.47 0.49 0.50 0.50 0.50 0.46 0.48 0.52 0.51 0.49 0.41 0.36 0.35 0.35 0.35 0.34 0.34 0.34 0.34 0.34 0.35 0.36 0.36 0.35 0.35 0.35 0.36 0.38 0.39 0.39 0.39 0.38 0.39 0.41 0.45
0.81 0.74 0.77 0.77 0.71 0.70 0.70 0.70 0.71 0.65 0.66 0.68 0.69 0.64 0.63 0.65 0.68 0.74 0.78 0.85 0.83 0.82 0.82 0.81 0.76 0.72 0.70 0.73 0.72 0.71 0.74 0.80 0.79 0.83 0.85 0.80 0.74 0.67 0.59 0.49 0.49 0.44 0.45 0.40 0.37 0.36 0.38 0.37 0.42 0.46 0.47 0.46 0.46 0.49 0.53 0.52 0.54 0.63 0.65 0.64 0.55 0.47 0.44 0.45 0.45 0.44 0.43 0.41 0.39 0.37 0.35 0.34 0.34 0.34 0.35 0.35 0.36 0.37 0.36 0.37 0.38 0.38 0.37 0.37 0.37
0.75 0.72 0.68 0.68 0.67 0.64 0.62 0.60 0.60 0.63 0.63 0.65 0.64 0.61 0.60 0.62 0.64 0.66 0.67 0.71 0.72 0.69 0.69 0.68 0.64 0.64 0.61 0.60 0.65 0.65 0.64 0.65 0.65 0.63 0.62 0.63 0.64 0.60 0.56 0.55 0.51 0.42 0.38 0.36 0.37 0.38 0.39 0.40 0.39 0.44 0.51 0.54 0.53 0.54 0.51 0.48 0.56 0.61 0.65 0.67 0.58 0.51 0.47 0.49 0.50 0.50 0.49 0.47 0.46 0.46 0.45 0.43 0.42 0.39 0.37 0.35 0.35 0.35 0.35 0.35 0.36 0.37 0.38 0.38 0.38
0.74 0.70 0.66 0.61 0.57 0.53 0.51 0.51 0.52 0.55 0.59 0.60 0.61 0.58 0.58 0.60 0.62 0.60 0.60 0.61 0.60 0.61 0.58 0.58 0.62 0.64 0.62 0.59 0.55 0.51 0.51 0.51 0.51 0.51 0.52 0.53 0.54 0.58 0.63 0.62 0.59 0.49 0.47 0.39 0.40 0.42 0.40 0.42 0.43 0.44 0.50 0.52 0.55 0.55 0.52 0.48 0.47 0.53 0.55 0.56 0.55 0.50 0.48 0.50 0.50 0.50 0.49 0.47 0.46 0.45 0.45 0.46 0.46 0.46 0.46 0.45 0.44 0.42 0.40 0.38 0.36 0.36 0.35 0.35 0.35
0.69 0.65 0.59 0.54 0.52 0.50 0.47 0.47 0.49 0.49 0.52 0.54 0.54 0.54 0.53 0.51 0.50 0.49 0.50 0.50 0.47 0.46 0.49 0.50 0.51 0.53 0.51 0.49 0.49 0.47 0.47 0.46 0.48 0.49 0.50 0.51 0.53 0.55 0.57 0.60 0.61 0.59 0.54 0.51 0.45 0.51 0.49 0.43 0.46 0.49 0.47 0.48 0.52 0.52 0.50 0.51 0.54 0.53 0.53 0.53 0.54 0.51 0.50 0.51 0.52 0.50 0.48 0.47 0.46 0.44 0.43 0.43 0.44 0.44 0.45 0.46 0.46 0.46 0.47 0.46 0.45 0.43 0.41 0.39 0.37
0.65 0.61 0.57 0.54 0.49 0.46 0.46 0.44 0.43 0.44 0.44 0.49 0.49 0.46 0.46 0.44 0.44 0.44 0.44 0.42 0.40 0.40 0.44 0.48 0.49 0.50 0.49 0.50 0.53 0.55 0.56 0.54 0.53 0.54 0.55 0.57 0.57 0.56 0.59 0.63 0.64 0.64 0.62 0.58 0.50 0.49 0.56 0.52 0.50 0.51 0.53 0.51 0.51 0.49 0.47 0.49 0.54 0.55 0.51 0.53 0.54 0.54 0.53 0.54 0.54 0.53 0.49 0.46 0.45 0.44 0.44 0.44 0.43 0.43 0.42 0.41 0.41 0.41 0.41 0.42 0.44 0.46 0.46 0.46 0.44
0.66 0.59 0.57 0.53 0.50 0.49 0.45 0.43 0.43 0.42 0.43 0.44 0.46 0.44 0.43 0.43 0.40 0.39 0.41 0.41 0.42 0.46 0.48 0.51 0.56 0.55 0.54 0.54 0.56 0.57 0.58 0.57 0.57 0.58 0.59 0.60 0.60 0.58 0.61 0.63 0.65 0.67 0.65 0.59 0.55 0.54 0.55 0.57 0.54 0.54 0.57 0.53 0.48 0.51 0.52 0.53 0.55 0.56 0.56 0.55 0.56 0.56 0.54 0.55 0.54 0.53 0.51 0.47 0.44 0.43 0.43 0.43 0.43 0.42 0.40 0.39 0.39 0.38 0.37 0.37 0.37 0.37 0.39 0.40 0.43
0.63 0.59 0.56 0.52 0.52 0.50 0.46 0.46 0.44 0.43 0.43 0.43 0.45 0.47 0.46 0.43 0.42 0.43 0.43 0.46 0.46 0.48 0.53 0.55 0.57 0.59 0.60 0.59 0.59 0.61 0.61 0.61 0.64 0.63 0.64 0.69 0.70 0.65 0.65 0.65 0.62 0.64 0.67 0.62 0.60 0.55 0.53 0.57 0.54 0.56 0.55 0.57 0.55 0.53 0.52 0.52 0.55 0.58 0.57 0.56 0.57 0.58 0.55 0.56 0.55 0.54 0.52 0.50 0.46 0.44 0.44 0.44 0.43 0.40 0.38 0.38 0.38 0.38 0.37 0.37 0.37 0.35 0.35 0.35 0.36
0.67 0.65 0.57 0.52 0.51 0.51 0.50 0.50 0.47 0.46 0.47 0.48 0.52 0.53 0.50 0.47 0.49 0.52 0.55 0.55 0.56 0.59 0.60 0.60 0.60 0.61 0.60 0.58 0.58 0.59 0.60 0.61 0.60 0.63 0.64 0.67 0.67 0.65 0.65 0.67 0.66 0.66 0.69 0.68 0.62 0.59 0.56 0.56 0.56 0.53 0.55 0.59 0.58 0.54 0.55 0.57 0.58 0.60 0.59 0.59 0.60 0.60 0.60 0.59 0.58 0.56 0.53 0.51 0.48 0.46 0.45 0.45 0.45 0.42 0.38 0.38 0.37 0.37 0.37 0.36 0.36 0.35 0.34 0.35 0.36
0.67 0.68 0.62 0.52 0.52 0.52 0.52 0.52 0.51 0.50 0.52 0.54 0.54 0.55 0.53 0.54 0.56 0.59 0.61 0.61 0.62 0.62 0.61 0.61 0.61 0.61 0.59 0.58 0.58 0.60 0.62 0.61 0.61 0.62 0.68 0.71 0.71 0.72 0.71 0.71 0.71 0.71 0.71 0.72 0.70 0.66 0.61 0.57 0.56 0.58 0.65 0.64 0.64 0.63 0.65 0.63 0.61 0.59 0.60 0.60 0.61 0.60 0.60 0.59 0.57 0.56 0.56 0.51 0.48 0.46 0.46 0.46 0.46 0.43 0.41 0.40 0.39 0.38 0.38 0.37 0.37 0.36 0.35 0.35 0.36
0.70 0.68 0.64 0.60 0.53 0.53 0.51 0.52 0.54 0.54 0.57 0.56 0.55 0.54 0.57 0.60 0.63 0.64 0.64 0.64 0.64 0.62 0.62 0.63 0.62 0.63 0.61 0.61 0.59 0.60 0.62 0.61 0.59 0.62 0.62 0.69 0.74 0.73 0.74 0.74 0.74 0.73 0.74 0.74 0.72 0.69 0.68 0.66 0.68 0.70 0.71 0.69 0.67 0.67 0.67 0.63 0.61 0.58 0.57 0.59 0.59 0.58 0.56 0.55 0.52 0.51 0.50 0.49 0.46 0.45 0.46 0.47 0.46 0.45 0.44 0.43 0.42 0.41 0.40 0.40 0.39 0.37 0.36 0.36 0.36
0.73 0.71 0.67 0.62 0.58 0.55 0.53 0.53 0.55 0.56 0.57 0.57 0.58 0.57 0.57 0.58 0.63 0.65 0.66 0.66 0.68 0.67 0.67 0.66 0.66 0.68 0.66 0.67 0.65 0.65 0.65 0.63 0.62 0.69 0.68 0.71 0.77 0.77 0.81 0.79 0.79 0.82 0.80 0.75 0.74 0.72 0.70 0.72 0.69 0.68 0.71 0.66 0.61 0.61 0.65 0.63 0.58 0.56 0.57 0.60 0.58 0.58 0.56 0.52 0.47 0.47 0.47 0.48 0.47 0.46 0.45 0.46 0.46 0.45 0.44 0.43 0.41 0.40 0.41 0.41 0.41 0.40 0.39 0.38 0.38
0.74 0.72 0.72 0.65 0.64 0.61 0.57 0.55 0.55 0.56 0.55 0.55 0.59 0.62 0.63 0.62 0.64 0.64 0.66 0.67 0.69 0.71 0.71 0.70 0.70 0.72 0.71 0.74 0.71 0.69 0.70 0.70 0.72 0.75 0.78 0.80 0.82 0.82 0.84 0.82 0.82 0.81 0.78 0.80 0.79 0.77 0.74 0.68 0.71 0.70 0.68 0.71 0.68 0.62 0.65 0.63 0.61 0.57 0.52 0.49 0.49 0.52 0.50 0.46 0.43 0.44 0.46 0.46 0.47 0.47 0.48 0.48 0.47 0.46 0.44 0.42 0.39 0.38 0.39 0.41 0.41 0.40 0.39 0.39 0.39
0.76 0.73 0.74 0.71 0.71 0.67 0.64 0.60 0.59 0.58 0.58 0.57 0.59 0.61 0.62 0.65 0.66 0.65 0.69 0.66 0.68 0.71 0.71 0.73 0.71 0.72 0.73 0.78 0.77 0.75 0.73 0.79 0.81 0.85 0.85 0.85 0.86 0.85 0.86 0.85 0.84 0.84 0.78 0.79 0.79 0.78 0.76 0.73 0.65 0.65 0.64 0.63 0.63 0.63 0.64 0.60 0.53 0.52 0.51 0.46 0.39 0.39 0.39 0.41 0.40 0.37 0.41 0.43 0.42 0.41 0.42 0.44 0.44 0.43 0.41 0.38 0.35 0.36 0.37 0.39 0.39 0.38 0.38 0.39 0.40
0.89 0.83 0.77 0.73 0.76 0.72 0.73 0.68 0.66 0.65 0.63 0.61 0.61 0.63 0.63 0.63 0.65 0.63 0.66 0.65 0.67 0.68 0.71 0.71 0.74 0.75 0.74 0.79 0.80 0.78 0.78 0.80 0.86 0.91 0.93 0.92 0.91 0.87 0.89 0.88 0.86 0.84 0.80 0.80 0.80 0.79 0.75 0.68 0.67 0.67 0.61 0.58 0.58 0.58 0.55 0.52 0.49 0.45 0.47 0.44 0.39 0.40 0.40 0.38 0.38 0.40 0.42 0.39 0.38 0.37 0.37 0.38 0.36 0.34 0.33 0.31 0.33 0.36 0.37 0.36 0.35 0.36 0.38 0.38 0.38
0.94 0.91 0.86 0.81 0.78 0.78 0.76 0.76 0.73 0.73 0.71 0.71 0.69 0.67 0.66 0.66 0.67 0.67 0.67 0.67 0.67 0.69 0.69 0.70 0.74 0.79 0.84 0.82 0.82 0.83 0.86 0.89 0.90 0.91 0.94 0.96 0.97 0.96 0.94 0.93 0.89 0.85 0.81 0.79 0.79 0.79 0.73 0.67 0.62 0.58 0.55 0.55 0.54 0.52 0.49 0.51 0.50 0.48 0.44 0.43 0.40 0.41 0.40 0.38 0.37 0.40 0.43 0.40 0.36 0.33 0.33 0.35 0.33 0.31 0.31 0.31 0.34 0.36 0.36 0.37 0.39 0.39 0.38 0.37 0.37
0.92 0.91 0.90 0.86 0.84 0.83 0.81 0.79 0.80 0.81 0.84 0.87 0.81 0.75 0.73 0.71 0.70 0.70 0.69 0.69 0.69 0.71 0.72 0.72 0.76 0.83 0.86 0.89 0.91 0.92 0.91 0.90 0.91 0.92 0.93 0.97 0.98 0.98 0.98 0.97 0.94 0.89 0.84 0.80 0.77 0.76 0.71 0.65 0.62 0.58 0.54 0.52 0.52 0.52 0.49 0.48 0.48 0.46 0.45 0.44 0.43 0.42 0.39 0.35 0.30 0.34 0.42 0.40 0.35 0.32 0.28 0.31 0.34 0.32 0.33 0.34 0.35 0.37 0.38 0.39 0.38 0.37 0.37 0.37 0.38
0.91 0.92 0.91 0.90 0.91 0.93 0.94 0.93 0.93 0.90 0.89 0.95 0.92 0.89 0.84 0.82 0.82 0.82 0.81 0.78 0.77 0.76 0.80 0.80 0.83 0.87 0.90 0.91 0.94 0.93 0.93 0.93 0.94 0.93 0.94 0.95 0.97 0.96 0.96 0.96 0.94 0.91 0.88 0.81 0.76 0.71 0.69 0.65 0.61 0.59 0.55 0.52 0.53 0.53 0.51 0.50 0.50 0.50 0.49 0.47 0.45 0.42 0.38 0.35 0.33 0.31 0.37 0.39 0.33 0.29 0.28 0.32 0.35 0.34 0.34 0.35 0.38 0.38 0.36 0.37 0.37 0.38 0.38 0.39 0.38
0.88 0.84 0.83 0.82 0.85 0.89 0.89 0.89 0.93 0.98 0.99 0.96 0.94 0.94 0.93 0.93 0.90 0.90 0.87 0.86 0.84 0.83 0.84 0.86 0.91 0.92 0.97 0.97 1.00 1.01 0.97 0.97 0.97 0.97 0.95 0.95 0.95 0.95 0.96 0.93 0.88 0.85 0.82 0.80 0.78 0.73 0.71 0.68 0.63 0.60 0.56 0.54 0.52 0.51 0.54 0.55 0.55 0.49 0.48 0.45 0.43 0.41 0.39 0.35 0.34 0.34 0.34 0.35 0.32 0.30 0.28 0.31 0.35 0.34 0.33 0.37 0.37 0.36 0.37 0.37 0.37 0.37 0.37 0.37 0.37
0.82 0.81 0.83 0.85 0.88 0.88 0.88 0.90 0.93 0.97 0.98 1.00 0.97 0.96 0.98 0.98 0.95 0.92 0.91 0.92 0.92 0.92 0.94 0.96 1.00 0.95 1.02 0.95 0.93 0.95 0.96 0.95 0.95 0.95 0.97 0.95 0.94 0.95 0.95 0.91 0.87 0.83 0.81 0.79 0.76 0.73 0.71 0.69 0.66 0.62 0.62 0.61 0.57 0.58 0.59 0.57 0.51 0.46 0.43 0.40 0.40 0.38 0.36 0.34 0.34 0.32 0.33 0.36 0.31 0.30 0.29 0.34 0.38 0.35 0.32 0.34 0.36 0.36 0.36 0.36 0.36 0.36 0.36 0.36 0.36
0.84 0.82 0.83 0.82 0.84 0.85 0.87 0.89 0.90 0.90 0.92 0.96 0.95 0.92 0.91 0.96 1.00 0.96 0.95 0.95 0.96 0.98 1.00 1.02 1.08 1.10 1.04 1.03 0.98 0.91 0.91 0.91 0.94 0.95 0.94 0.92 0.92 0.89 0.82 0.80 0.80 0.81 0.79 0.74 0.70 0.70 0.70 0.69 0.68 0.67 0.65 0.65 0.62 0.59 0.55 0.53 0.49 0.46 0.43 0.41 0.39 0.37 0.35 0.34 0.32 0.33 0.33 0.36 0.35 0.33 0.27 0.30 0.34 0.31 0.30 0.32 0.34 0.35 0.36 0.36 0.35 0.34 0.34 0.35 0.37
0.88 0.88 0.88 0.87 0.85 0.83 0.84 0.86 0.85 0.82 0.86 0.89 0.90 0.91 0.94 0.97 0.96 0.93 0.92 0.92 0.93 0.97 0.97 0.95 0.93 1.01 1.05 1.02 0.95 0.90 0.90 0.89 0.92 0.94 0.93 0.91 0.87 0.82 0.76 0.75 0.74 0.71 0.68 0.68 0.68 0.69 0.70 0.69 0.67 0.66 0.63 0.60 0.57 0.53 0.51 0.48 0.47 0.45 0.43 0.40 0.37 0.33 0.32 0.29 0.27 0.29 0.28 0.32 0.35 0.33 0.29 0.29 0.32 0.30 0.31 0.34 0.34 0.32 0.33 0.32 0.33 0.35 0.37 0.37 0.37
0.81 0.83 0.83 0.83 0.85 0.84 0.83 0.84 0.84 0.86 0.85 0.90 0.89 0.87 0.90 0.93 0.91 0.89 0.88 0.87 0.89 0.90 0.91 0.95 0.99 1.02 1.02 0.99 0.94 0.92 0.92 0.92 0.93 0.91 0.90 0.84 0.77 0.75 0.74 0.72 0.69 0.65 0.64 0.67 0.66 0.67 0.66 0.62 0.59 0.57 0.56 0.54 0.52 0.51 0.50 0.47 0.44 0.41 0.38 0.34 0.32 0.33 0.29 0.25 0.25 0.27 0.29 0.33 0.33 0.33 0.32 0.29 0.33 0.32 0.30 0.31 0.31 0.29 0.29 0.31 0.35 0.37 0.37 0.37 0.38
0.74 0.79 0.83 0.86 0.88 0.87 0.84 0.82 0.84 0.83 0.85 0.86 0.87 0.89 0.89 0.92 0.93 0.90 0.87 0.85 0.86 0.90 0.91 0.95 0.97 0.97 0.97 0.97 0.94 0.92 0.91 0.92 0.90 0.88 0.83 0.80 0.76 0.74 0.70 0.66 0.63 0.60 0.60 0.63 0.65 0.63 0.60 0.58 0.56 0.55 0.54 0.52 0.52 0.51 0.48 0.45 0.43 0.42 0.38 0.33 0.34 0.34 0.30 0.29 0.27 0.29 0.30 0.30 0.34 0.37 0.30 0.29 0.31 0.31 0.28 0.29 0.29 0.30 0.31 0.33 0.34 0.36 0.37 0.37 0.38
0.66 0.69 0.69 0.69 0.72 0.77 0.80 0.80 0.82 0.84 0.87 0.91 0.92 0.91 0.91 0.91 0.91 0.91 0.89 0.86 0.85 0.86 0.87 0.89 0.94 0.93 0.91 0.92 0.93 0.93 0.92 0.91 0.89 0.84 0.81 0.80 0.75 0.70 0.66 0.62 0.60 0.60 0.62 0.63 0.61 0.58 0.56 0.55 0.55 0.55 0.54 0.54 0.52 0.49 0.47 0.46 0.44 0.43 0.42 0.39 0.38 0.34 0.30 0.30 0.30 0.29 0.26 0.27 0.34 0.36 0.29 0.28 0.29 0.31 0.31 0.27 0.24 0.29 0.33 0.34 0.35 0.36 0.37 0.38 0.38
Wind_Speed
8 9 9 9 9 8 9 9 8 8 8 8 8 8 9 9 8 8 8 8 9 9 10 11 12 12 12 13 14 14 14 14 14 14 14 13 13 13 13 13 13 13 13 13 13 13 13 12 12 11 11 11 10 10 9 9 8 8 8 8 8 7 7 7 7 7 7 7 7 6 6 6 6 5 5 5 4 4 4 4 3 3 3 3 3
8 8 9 8 8 8 8 8 8 8 8 8 8 8 9 9 9 9 8 8 8 9 9 10 11 11 11 11 12 12 12 13 13 12 12 12 12 12 12 12 12 12 13 13 13 13 13 13 12 12 11 11 11 11 10 10 10 9 9 9 9 9 9 9 8 8 8 8 8 8 8 7 7 7 6 6 6 6 5 5 5 4 4 4 4
7 7 8 8 7 7 7 7 8 7 7 7 8 8 8 8 9 9 9 8 8 8 8 8 9 11 11 11 11 11 10 11 11 10 11 11 11 11 11 11 11 12 12 12 13 13 13 13 12 12 12 12 12 11 11 11 11 11 10 10 11 11 11 10 10 10 9 9 9 9 9 9 9 9 8 8 8 7 7 6 6 6 6 5 5
7 7 7 7 7 7 7 6 7 7 7 7 7 7 7 7 8 8 8 8 8 8 8 8 8 10 10 10 10 11 11 10 10 10 10 10 10 10 10 10 10 10 11 11 12 12 12 12 12 12 12 12 11 12 11 12 12 12 12 11 12 12 11 11 11 11 11 11 11 11 11 11 10 10 10 10 9 9 9 8 8 8 7 7 6
7 7 7 7 7 7 7 6 6 6 6 7 6 6 6 6 7 7 7 7 8 8 8 7 8 8 8 8 9 9 10 9 9 9 9 10 10 9 9 9 9 9 9 10 10 11 11 11 11 12 12 12 12 12 12 12 12 12 12 12 12 12 12 12 12 12 12 12 12 12 12 12 12 12 11 11 11 11 10 10 10 10 9 9 8
7 7 7 7 7 7 7 7 7 6 6 6 5 5 6 6 6 6 6 6 7 8 8 7 8 8 7 7 7 7 7 8 8 8 8 8 8 8 8 8 8 8 8 8 9 9 10 10 11 11 11 12 12 12 12 12 11 12 12 12 12 12 12 12 12 13 13 13 13 13 13 13 13 13 13 13 12 12 12 12 12 12 11 11 10
7 7 7 7 7 8 7 7 6 6 5 5 5 5 5 5 5 6 6 6 6 7 8 7 7 8 7 6 5 5 6 6 6 6 7 7 7 7 7 7 7 7 7 7 7 8 9 9 10 10 11 11 12 12 11 11 11 11 12 12 12 12 13 13 13 13 13 13 13 13 13 13 13 14 14 14 14 14 13 13 13 13 13 12 12
6 7 6 7 7 7 6 6 6 5 5 5 5 5 5 5 5 6 6 5 6 6 7 7 6 6 7 6 4 4 5 5 5 6 6 6 7 7 7 8 8 7 7 7 7 7 8 8 9 9 10 10 11 11 11 12 12 12 13 13 13 13 13 13 13 13 13 13 13 13 13 14 14 14 14 14 15 15 15 14 14 14 14 14 14
5 5 6 6 6 6 5 5 6 5 5 5 5 5 5 5 6 6 6 5 6 6 6 7 7 6 6 6 5 4 5 5 5 6 6 6 6 7 7 7 7 7 7 7 7 7 7 8 8 9 9 10 10 11 11 12 12 13 13 14 14 14 15 14 14 14 14 13 13 13 14 14 14 14 14 14 15 15 15 16 16 15 15 15 15
4 4 4 5 5 5 5 5 5 5 5 5 5 5 5 5 5 6 6 6 6 6 6 6 7 6 6 6 6 5 5 5 5 5 6 6 7 7 7 7 6 6 7 7 7 7 7 7 8 8 9 9 10 10 11 11 12 12 13 13 14 15 15 15 15 15 15 15 15 15 14 14 14 14 15 15 15 15 15 16 16 16 16 16 16
3 3 3 4 4 4 5 4 5 5 5 5 5 5 5 5 5 5 6 6 6 6 6 6 6 6 6 6 6 6 5 5 5 6 6 6 7 7 7 7 7 7 7 7 7 7 7 7 7 8 8 8 9 9 10 10 11 12 12 13 14 14 15 15 16 16 16 16 16 16 16 16 15 15 16 16 16 16 16 16 16 17 17 17 17
3 3 3 3 3 4 4 4 5 5 5 5 5 5 6 6 5 5 5 5 6 5 5 6 5 5 5 5 5 5 6 5 5 6 7 7 7 8 7 7 7 7 7 6 6 6 6 7 7 7 7 7 7 8 8 9 10 10 11 12 12 13 14 15 15 15 16 16 17 17 17 17 17 17 16 16 16 16 16 16 16 17 17 17 18
3 3 2 3 3 4 4 4 5 5 5 5 5 6 6 6 6 5 6 6 6 6 6 5 5 5 5 5 5 5 5 5 5 6 6 6 7 7 6 6 6 6 6 6 6 6 6 6 6 6 6 6 6 6 7 7 8 9 9 10 11 11 12 13 14 14 15 16 16 17 17 17 17 17 17 17 17 17 17 17 17 17 17 18 18
3 3 3 3 3 3 4 4 5 5 5 6 6 6 6 6 7 6 6 6 6 6 6 6 6 6 5 5 5 5 5 5 5 5 5 6 5 5 5 5 5 5 5 5 5 5 5 6 5 5 5 5 5 5 5 6 6 7 8 9 9 10 10 11 12 13 14 15 15 16 17 17 17 17 18 18 18 18 18 18 18 18 18 18 18
3 3 3 3 3 3 3 4 4 5 5 6 6 6 6 7 7 7 6 6 7 7 7 7 6 6 5 5 5 5 5 4 4 4 5 5 5 5 4 4 4 4 4 5 4 4 4 4 4 4 4 4 4 5 5 5 6 6 7 8 8 9 10 10 11 12 13 13 14 15 15 16 17 17 18 18 18 19 19 19 19 19 19 19 19
4 4 4 3 4 4 4 4 4 4 5 5 5 6 6 7 7 7 7 7 7 7 7 7 7 7 6 5 5 5 5 5 5 4 4 4 4 4 4 3 3 4 3 3 3 3 3 3 3 3 4 4 4 5 5 5 6 6 7 7 8 8 9 10 11 11 12 13 13 14 14 15 16 17 18 18 19 19 19 20 20 20 20 19 20
4 4 4 4 4 4 4 4 4 4 4 5 5 6 6 7 7 7 8 8 8 7 7 8 8 7 7 6 6 6 6 6 5 5 4 4 4 3 3 3 3 3 2 2 2 2 3 3 3 3 4 4 4 4 5 6 6 7 7 7 8 8 9 9 10 11 11 12 13 14 15 15 16 16 17 18 19 19 19 20 21 21 21 20 20
4 4 4 4 4 4 4 5 5 5 5 5 5 5 6 7 7 7 8 8 8 7 7 7 8 7 7 7 7 7 7 6 6 5 4 4 4 4 4 3 3 3 3 3 3 3 3 3 3 3 4 4 4 5 5 6 6 7 7 7 7 8 8 8 9 9 10 11 11 12 13 14 15 16 17 18 19 19 20 20 21 21 22 21 21
5 5 5 5 4 4 5 5 6 6 6 6 6 6 6 6 7 7 7 8 8 8 8 8 8 8 8 7 7 7 7 7 6 6 5 4 4 4 4 3 3 3 3 4 4 4 3 4 4 4 4 5 5 6 6 6 7 7 7 8 8 8 8 9 9 9 9 9 10 10 11 12 13 14 16 17 18 19 19 19 20 20 21 21 21
5 5 5 5 5 5 5 5 6 6 6 6 7 7 7 6 6 7 7 7 8 8 8 8 8 8 8 8 7 7 7 7 7 7 6 6 5 4 4 3 3 3 3 4 4 4 4 4 5 5 5 6 6 6 6 6 7 8 8 8 8 8 8 9 9 9 9 9 9 10 10 10 11 12 13 14 15 16 17 17 18 19 20 21 21
6 6 6 6 6 6 6 6 6 6 6 6 6 6 7 6 7 7 7 7 8 8 8 8 8 8 8 8 8 8 7 8 8 7 6 6 6 6 5 5 4 4 4 4 4 4 5 5 5 6 6 6 6 6 6 7 7 7 8 7 7 8 8 8 8 8 9 9 9 10 10 10 10 10 11 11 12 13 14 15 15 16 17 19 20
7 7 7 7 7 7 7 7 6 6 6 6 5 5 6 6 7 7 7 7 8 8 8 8 8 8 8 8 8 8 8 8 8 8 7 6 6 6 6 6 5 5 5 4 5 5 5 5 5 6 6 6 6 6 6 6 7 7 7 7 7 7 7 8 8 8 9 9 9 9 9 9 9 9 9 10 10 10 11 11 12 13 14 15 17
7 7 7 7 7 7 7 7 6 6 6 5 5 5 5 5 6 6 6 7 7 8 8 8 8 7 7 7 7 8 8 8 8 8 8 7 7 6 6 6 5 6 6 6 5 5 5 5 5 6 6 6 5 6 6 6 6 6 6 6 7 7 7 7 8 9 9 9 9 9 9 9 9 9 9 9 9 10 9 10 10 11 11 12 13
8 8 7 6 6 6 6 6 6 6 5 5 4 4 5 5 5 5 6 6 7 7 7 7 7 7 6 6 6 7 7 8 8 8 8 8 7 7 6 6 5 6 6 6 5 5 5 5 5 5 5 5 5 5 5 5 5 6 6 6 6 7 7 7 8 8 9 9 9 10 10 10 10 10 10 10 10 10 10 10 10 10 10 11 11
7 7 6 5 5 5 5 5 5 5 4 4 3 3 4 4 4 4 5 5 6 6 7 6 6 6 6 5 5 5 5 6 7 8 8 9 8 7 6 5 6 6 6 5 4 4 4 4 4 4 4 4 4 4 4 5 5 5 5 6 6 7 7 7 8 8 8 9 9 9 10 10 10 10 10 10 10 10 10 11 11 11 11 11 11
7 6 5 5 4 5 5 5 5 4 4 3 3 3 3 3 3 3 4 4 5 5 5 5 5 6 6 6 6 6 5 5 6 7 8 8 9 7 5 6 7 6 6 5 4 3 3 3 3 3 3 4 4 4 4 4 4 4 5 5 6 7 7 7 7 8 8 8 9 9 9 9 9 10 10 10 11 11 11 11 12 12 12 12 12
6 5 5 4 4 4 4 4 4 4 4 3 3 2 2 2 2 3 3 4 4 4 5 5 5 5 5 6 6 6 6 6 6 7 7 7 7 7 6 7 7 6 6 5 3 3 3 3 3 3 3 3 3 3 3 4 4 4 4 5 6 7 7 7 7 8 8 8 9 9 9 9 9 10 10 10 10 11 11 12 12 12 12 12 12
6 5 4 4 4 4 5 5 4 4 4 3 3 3 2 2 2 2 3 3 3 4 4 5 5 5 5 6 5 5 6 6 6 7 7 7 6 6 6 7 7 6 6 5 4 4 3 3 3 3 3 3 3 3 3 4 4 5 5 5 6 7 6 7 7 8 8 9 9 9 10 10 10 10 10 10 11 11 11 11 12 12 12 12 13
6 5 4 4 4 4 5 4 4 4 4 3 3 3 3 3 2 2 3 3 3 4 4 4 4 4 5 5 5 5 5 6 5 5 6 6 6 5 5 5 6 6 6 5 4 4 4 3 3 4 4 4 4 4 4 4 5 6 6 6 6 7 7 7 8 8 9 9 9 10 10 10 11 11 11 11 11 12 12 12 12 13 13 13 13
5 5 4 4 4 4 4 4 4 4 4 4 4 4 4 4 3 3 3 4 4 4 4 4 4 4 4 4 4 4 5 5 5 4 4 5 6 5 4 5 6 6 6 5 4 5 5 4 4 5 5 5 5 4 5 5 6 7 7 6 7 8 8 8 8 9 9 10 10 11 11 11 12 12 12 12 13 13 13 13 14 14 14 14 14
5 5 4 4 4 5 5 5 5 5 4 4 4 4 5 4 4 4 4 4 4 4 4 4 4 4 4 4 4 4 4 4 4 4 4 4 5 5 5 5 4 4 5 5 4 5 5 5 6 6 6 6 6 6 6 6 7 8 8 8 8 9 9 9 10 10 11 11 11 12 12 13 13 13 13 14 14 14 14 15 15 15 15 16 16
6 6 6 6 6 6 5 5 5 5 5 5 5 5 5 5 5 5 5 5 5 4 4 5 4 4 4 3 3 3 3 4 4 3 3 4 4 4 5 5 4 4 4 5 5 6 6 6 7 7 7 7 7 7 8 8 9 10 10 10 10 11 11 11 12 12 13 13 13 13 14 14 15 15 15 15 15 16 16 16 16 16 17 17 17
7 7 7 7 7 6 5 5 4 4 4 5 5 5 5 5 5 5 5 5 5 5 4 4 4 4 4 4 3 3 3 3 3 4 4 4 5 5 5 5 5 5 6 6 7 7 8 8 8 8 9 9 9 9 9 10 11 11 11 11 12 13 12 13 14 14 14 15 15 15 15 15 16 16 16 16 17 17 17 17 17 18 18 18 18
8 7 7 7 7 6 5 5 4 4 4 5 5 5 5 5 5 5 5 5 5 5 4 4 4 4 4 4 4 4 4 3 4 4 5 6 6 5 5 6 7 7 8 8 8 8 9 9 10 10 10 10 11 11 11 12 12 12 12 12 13 13 13 13 14 15 16 16 16 17 17 17 17 17 17 17 18 18 18 19 19 19 19 19 19
8 8 8 7 7 6 6 5 5 5 5 5 5 5 6 6 5 5 5 5 5 5 5 5 5 5 5 5 5 5 5 5 5 6 7 7 6 6 6 7 8 9 9 9 9 9 9 10 10 10 10 11 11 11 12 12 12 13 13 12 12 12 12 13 14 15 17 17 18 18 19 19 19 19 19 19 19 20 20 20 20 20 20 20 20
8 8 8 8 7 7 6 6 6 6 6 5 6 6 6 6 6 6 6 6 6 6 6 6 6 6 6 6 6 7 7 7 7 8 8 7 7 8 9 9 9 10 10 10 10 10 10 10 11 10 11 12 12 12 13 13 13 14 14 13 13 13 14 15 16 16 17 18 19 19 20 20 21 21 21 21 22 22 22 22 21 21 21 22 22
9 8 9 8 8 8 8 7 7 7 7 7 7 7 7 7 7 7 7 7 7 6 6 7 7 7 8 8 8 9 9 9 9 9 9 9 9 10 10 10 10 10 11 11 11 11 11 11 11 11 12 12 13 13 13 13 13 14 13 13 14 14 16 17 18 19 19 20 20 21 21 22 22 23 23 23 24 24 24 24 24 24 23 24 24
10 10 10 10 10 10 10 9 9 9 9 9 8 8 8 8 8 8 8 8 8 7 7 8 8 9 9 9 10 10 11 11 10 10 11 11 11 11 11 11 11 11 11 11 11 12 12 12 12 12 12 13 13 14 14 13 14 13 13 14 15 17 18 19 20 21 21 21 21 22 23 23 24 25 25 26 27 27 27 27 26 26 26 26 26
11 11 11 11 11 11 11 11 11 11 11 11 10 10 10 10 10 10 10 10 9 9 9 10 10 10 11 11 11 12 12 12 12 12 13 13 13 13 13 13 12 12 12 12 13 13 12 13 13 13 13 14 14 15 15 14 15 15 15 17 18 19 20 21 22 23 23 23 23 24 24 25 26 27 28 29 30 30 29 29 28 29 29 29 28
12 12 13 13 12 13 13 13 13 13 13 13 13 12 12 12 12 12 12 12 12 12 12 12 12 13 13 13 13 13 14 14 15 15 15 15 15 15 15 15 14 14 14 14 14 14 14 14 15 15 14 15 15 15 16 16 17 18 18 19 20 21 22 23 25 26 25 25 25 26 27 27 29 30 31 32 32 31 30 30 30 30 30 30 31
13 13 13 13 13 14 14 15 15 15 15 15 15 15 15 15 15 15 15 15 15 15 15 15 15 15 15 15 15 15 15 15 16 16 16 17 17 17 17 17 17 16 16 16 15 15 15 16 16 16 16 15 16 16 17 17 18 18 20 20 21 23 24 26 28 28 27 27 27 28 29 30 31 32 33 33 32 31 31 31 31 31 31 32 33
13 13 13 14 14 15 16 16 17 17 17 17 18 18 18 18 18 18 18 18 18 18 18 18 18 17 17 18 18 17 17 17 17 17 17 17 18 18 18 18 19 18 18 17 17 17 17 17 17 16 16 17 17 17 18 19 19 20 21 22 23 25 27 28 28 28 28 29 30 30 31 32 33 33 32 32 32 32 31 31 31 32 32 33 34
14 14 14 15 15 16 16 17 17 18 18 19 19 19 20 20 20 20 20 20 20 20 20 20 20 20 20 20 20 20 20 20 20 19 19 19 19 19 19 19 19 19 18 18 18 18 18 18 18 17 18 19 19 19 19 20 21 22 23 24 25 27 28 29 29 29 29 31 32 33 33 34 33 33 32 32 32 32 32 32 33 33 34 34 34
16 17 17 17 17 18 18 19 19 20 20 20 20 20 21 21 21 22 22 22 23 23 23 23 23 23 22 22 22 22 22 22 22 22 22 21 21 21 21 20 20 19 19 19 19 19 19 19 18 18 19 19 19 20 21 21 23 24 25 26 28 29 30 30 30 31 32 33 34 34 34 34 33 33 33 33 33 34 34 35 35 35 35 35 35
18 19 19 19 20 20 21 21 22 22 22 22 22 22 23 23 23 24 24 24 24 25 25 26 26 25 24 23 23 23 24 23 23 24 24 24 24 23 23 22 21 21 21 20 20 20 20 20 19 19 20 20 21 22 22 24 25 26 28 29 30 31 31 32 32 33 34 34 34 35 35 34 34 34 34 34 34 35 35 36 36 36 37 37 37
19 20 20 21 21 22 22 23 24 24 24 24 25 25 26 26 27 26 26 26 26 26 26 27 26 26 26 25 25 25 25 25 25 25 25 25 25 24 23 23 22 22 22 21 21 21 21 21 21 21 21 22 23 23 24 26 27 28 29 31 31 32 33 33 34 34 35 35 35 35 36 35 35 35 35 35 35 36 36 37 37 38 38 38 38
21 21 21 22 23 23 24 25 25 26 26 27 27 28 29 29 28 28 28 28 28 28 27 27 27 27 27 26 26 26 27 27 27 27 26 26 24 23 23 23 23 23 22 22 22 22 22 22 22 23 23 24 24 25 26 28 29 30 31 32 32 33 33 34 34 34 35 35 35 35 36 36 36 36 36 36 36 36 36 37 38 38 38 38 38
23 23 24 24 25 25 26 26 27 27 28 28 29 29 30 30 30 30 30 31 30 30 30 29 29 29 29 28 27 27 27 27 27 27 26 25 24 24 24 24 24 23 23 23 23 23 23 23 23 24 25 25 25 26 28 29 30 31 32 32 33 33 34 35 35 35 34 35 35 36 37 37 37 37 37 36 36 37 37 37 37 37 36 37 37
25 26 26 26 26 27 27 28 29 29 30 31 31 31 31 31 32 32 32 32 32 32 32 31 30 30 30 29 29 28 27 27 27 27 26 25 25 25 25 24 24 23 23 24 23 23 23 24 24 25 25 26 26 28 29 30 31 31 32 32 33 33 34 35 35 35 35 35 36 36 37 37 36 37 37 37 37 37 36 36 35 35 36 36 37
27 28 29 29 30 30 30 30 31 31 31 32 33 33 33 33 33 33 33 33 33 33 33 33 32 31 31 30 30 30 28 27 27 26 26 26 25 25 24 24 23 23 23 23 23 24 24 25 25 26 27 27 28 29 30 31 31 31 32 32 33 34 35 35 35 36 36 36 36 36 37 37 37 37 38 38 37 36 35 35 36 36 37 37 38
31 31 32 32 33 33 33 33 32 32 32 32 33 34 34 34 34 34 34 34 34 34 34 33 32 31 31 30 30 29 28 27 27 26 26 25 24 24 24 23 23 23 23 24 24 25 26 26 27 27 28 29 30 30 31 31 31 31 32 32 33 34 35 35 36 36 36 36 36 37 37 37 37 37 37 37 37 36 35 36 37 38 38 39 40
Wind_Direction
250 254 261 263 264 265 263 265 268 269 264 261 264 263 260 260 256 253 252 248 246 243 239 237 233 233 232 229 230 232 232 233 234 233 236 239 240 240 241 242 243 242 243 244 244 244 245 245 244 245 246 246 246 247 247 249 250 252 254 255 257 260 261 261 261 263 265 267 269 270 271 274 275 276 277 278 283 290 295 301 313 323 330 339 347
250 255 260 263 265 266 263 263 265 268 265 260 264 266 261 257 251 246 247 245 245 244 238 236 233 231 232 229 228 230 230 230 231 231 232 235 237 239 241 243 244 244 244 245 245 245 245 245 244 245 247 246 246 248 248 249 251 253 256 257 258 260 262 263 262 262 263 263 266 268 269 270 271 272 272 272 275 279 282 283 289 298 306 312 319
249 254 259 263 264 267 267 264 264 264 263 262 263 264 258 252 246 243 244 243 243 242 236 236 234 230 231 230 228 229 230 227 226 229 231 232 234 236 238 241 244 244 245 245 244 244 244 245 244 245 247 246 247 249 250 250 252 254 256 259 260 261 262 263 263 263 263 262 263 265 266 267 268 269 270 270 272 274 275 276 279 284 290 295 300
254 256 260 264 264 266 269 266 265 265 263 262 259 257 252 246 244 241 241 241 240 238 235 234 232 230 232 232 230 232 233 229 228 232 235 232 232 234 238 241 243 244 245 245 243 243 243 242 243 244 245 245 247 250 251 252 254 254 255 258 260 261 263 264 265 264 263 263 263 264 264 265 266 268 269 270 270 271 272 273 274 276 279 283 287
259 259 259 264 266 265 267 266 266 268 267 261 256 253 247 243 242 237 238 242 238 233 231 233 230 226 230 232 230 231 231 228 227 231 231 228 229 234 239 240 241 242 243 243 241 240 240 240 241 243 244 245 247 248 250 253 254 253 254 256 258 260 262 264 266 266 264 263 263 264 264 265 265 266 268 269 270 270 270 270 271 272 273 275 278
261 261 258 261 265 264 266 268 266 269 268 261 256 250 245 244 240 235 238 240 237 230 227 233 228 221 229 233 225 225 225 222 222 223 223 223 227 233 236 237 239 240 240 240 239 238 238 240 242 244 245 246 247 248 249 250 252 254 255 256 257 259 261 263 266 267 266 265 264 264 264 265 265 266 267 268 269 269 269 269 268 269 270 271 273
263 263 262 264 267 266 268 267 263 265 263 258 256 250 245 243 237 236 239 237 236 229 224 227 219 220 232 226 213 220 222 217 214 216 221 224 227 231 232 235 239 237 237 238 238 238 238 240 243 245 247 248 248 248 248 248 252 256 257 257 258 259 261 262 263 265 266 266 265 265 265 265 266 266 266 266 267 268 268 268 267 267 268 269 270
264 264 263 267 269 268 269 264 259 263 260 255 253 247 243 240 237 236 237 239 237 224 220 223 216 225 233 217 208 223 220 218 219 219 224 227 228 231 235 240 241 238 237 238 238 238 239 241 243 246 249 250 251 252 251 253 256 259 260 260 260 261 262 263 263 263 265 266 266 266 266 265 266 267 266 266 267 266 266 266 266 266 266 267 267
271 267 263 266 268 266 266 261 257 260 257 253 246 242 241 238 236 236 236 238 231 220 222 226 224 233 232 215 218 228 226 231 232 228 231 233 235 239 244 246 245 243 242 240 239 239 241 244 247 250 252 254 256 256 256 259 262 263 264 263 261 261 262 263 264 264 264 264 266 267 267 266 266 266 267 268 268 267 266 265 265 264 264 264 265
284 281 269 265 264 261 262 258 253 252 249 245 240 240 244 241 238 237 236 233 227 226 232 231 231 237 232 223 229 234 235 238 236 235 237 239 243 246 246 246 244 242 241 239 241 243 244 246 249 252 254 256 258 259 261 264 266 267 267 266 264 264 264 263 263 264 264 264 265 266 267 267 267 267 267 268 268 269 268 267 266 264 263 263 263
296 298 285 269 261 257 256 251 246 246 243 240 238 239 242 242 238 237 237 233 232 238 240 234 234 236 231 228 232 238 242 241 241 243 244 243 244 246 245 244 244 243 240 239 244 248 249 249 251 253 256 258 260 262 265 267 269 271 271 269 268 267 266 265 265 264 264 264 265 265 266 266 266 267 267 267 268 268 269 268 268 266 264 263 263
303 302 294 275 262 259 253 248 244 242 242 241 238 237 237 236 235 236 237 235 238 244 240 233 233 229 223 225 230 239 245 244 245 247 249 248 245 244 245 246 245 242 240 241 247 250 252 255 255 256 258 260 263 266 268 269 271 273 273 273 272 270 268 266 266 266 266 265 266 266 265 265 265 266 266 266 266 267 268 268 269 269 266 264 263
307 301 298 283 269 265 256 250 246 244 247 247 243 241 239 237 236 236 236 236 240 241 236 232 230 225 225 236 240 242 244 245 247 250 252 249 245 243 241 242 241 239 241 244 246 246 250 256 257 257 259 263 267 270 271 275 278 279 278 277 276 276 272 270 269 268 268 267 267 267 266 266 266 266 265 265 265 266 267 268 269 270 270 267 264
315 306 300 291 281 274 266 256 249 249 253 252 248 245 242 241 239 237 236 238 243 242 238 236 233 232 236 244 244 241 242 245 248 251 254 251 249 246 239 237 239 242 243 242 244 246 249 253 255 256 257 262 267 270 277 285 290 291 289 285 281 280 279 276 275 273 271 270 269 268 268 267 267 266 266 265 265 266 267 268 269 269 269 269 266
316 311 305 298 291 283 275 266 258 256 256 253 250 247 245 244 240 239 241 242 244 243 242 241 237 237 240 243 242 237 240 249 249 250 256 255 253 251 243 237 233 236 239 238 243 247 248 246 246 249 253 262 268 270 281 291 296 299 298 294 289 285 282 280 280 279 276 274 273 271 271 269 268 267 266 266 266 266 267 268 268 268 267 268 267
314 312 310 302 296 289 281 276 271 266 261 255 251 250 249 246 242 242 244 242 242 243 245 245 241 239 240 243 241 239 245 248 244 249 257 252 249 249 244 233 220 223 230 231 233 234 237 245 253 262 265 270 273 273 282 291 296 301 303 301 298 293 289 286 284 283 281 279 277 275 274 272 270 269 268 268 268 268 268 267 267 267 266 266 266
317 314 311 305 297 293 287 282 276 270 267 262 257 254 251 248 247 248 246 244 244 245 244 242 241 240 241 241 241 245 249 241 235 249 255 241 238 239 229 215 208 215 223 222 231 238 247 261 270 278 280 280 281 283 288 292 295 299 302 304 303 301 298 295 292 290 287 284 281 279 277 275 273 272 271 271 271 271 270 269 267 265 264 265 265
317 312 309 306 302 295 289 286 281 274 270 268 264 261 255 249 248 249 248 247 246 244 241 239 241 241 242 244 247 249 242 234 236 244 241 233 235 230 225 225 221 227 239 241 247 253 258 269 274 279 283 285 287 288 290 294 297 300 302 305 307 306 305 304 302 300 298 293 289 287 283 280 277 276 275 275 274 274 274 272 269 265 263 264 265
314 313 309 307 307 301 292 290 289 284 277 272 267 266 266 257 250 248 247 245 244 243 242 242 242 242 244 246 250 248 237 233 235 230 225 231 236 229 229 237 231 235 250 251 255 258 259 269 277 282 287 288 287 286 289 293 297 300 303 306 308 308 308 308 306 305 304 301 296 294 292 289 286 282 280 280 279 278 277 275 271 267 264 264 265
309 310 309 307 305 304 301 297 296 293 283 275 270 268 269 263 255 251 248 245 244 245 243 242 243 244 245 245 245 242 236 236 234 227 225 227 234 238 236 237 238 249 258 255 261 267 265 270 277 284 291 293 291 289 291 294 298 303 306 308 309 309 309 308 307 305 305 304 301 301 301 299 297 293 290 289 288 284 281 278 275 271 267 265 264
306 306 304 305 303 302 301 298 301 299 284 275 275 272 268 264 259 255 251 247 246 248 243 241 243 242 243 244 243 240 237 238 234 230 228 227 235 241 237 241 251 258 258 253 259 268 270 274 278 283 291 296 297 294 294 296 300 305 308 311 311 310 311 310 309 309 308 307 305 304 306 306 304 301 298 298 298 294 289 284 281 277 273 269 267
304 305 301 301 301 300 299 296 300 300 287 275 272 271 268 266 264 257 252 248 248 249 246 246 246 242 242 243 241 238 235 235 233 229 229 230 231 230 231 239 248 250 252 251 257 267 273 279 282 285 288 294 299 300 298 299 302 306 310 313 313 312 312 311 311 311 311 310 309 307 307 307 307 305 304 305 305 304 300 294 290 286 282 278 274
301 304 300 299 297 296 299 299 300 302 297 285 275 272 268 265 263 258 254 250 248 249 248 246 244 241 243 241 239 236 232 233 232 227 226 227 224 225 230 234 240 246 249 251 259 266 272 277 281 284 287 291 297 300 302 303 305 309 313 316 316 315 314 313 312 313 313 313 312 311 310 309 307 307 307 307 308 308 307 306 304 299 295 291 286
300 304 301 300 299 296 299 301 301 305 304 294 286 279 271 264 260 259 258 253 249 247 243 239 238 237 238 236 234 233 230 230 228 224 224 225 225 227 227 230 245 255 253 254 263 269 271 276 279 283 287 292 298 300 305 308 310 314 319 321 321 320 320 318 316 315 315 316 315 314 313 311 309 307 306 306 306 307 307 309 311 310 306 301 296
296 302 304 305 308 303 301 300 300 305 306 297 293 287 279 272 266 266 264 257 250 245 239 235 234 231 226 224 222 221 223 221 221 224 225 226 230 229 226 234 246 252 250 251 261 270 275 280 282 285 288 294 300 305 312 316 317 320 325 328 327 326 325 324 323 322 321 319 318 317 315 314 312 310 308 307 306 305 306 308 310 309 308 305 300
287 295 303 309 313 309 303 303 301 301 299 294 298 300 292 283 276 276 270 260 250 243 238 232 230 225 220 221 220 219 217 211 213 217 219 229 236 232 237 249 244 244 246 246 253 266 275 279 281 288 294 299 303 306 315 321 321 322 328 334 335 333 331 330 330 329 328 327 325 323 321 318 316 314 312 310 308 307 306 307 308 307 306 305 303
280 287 297 303 310 313 308 304 301 298 293 287 294 301 294 290 289 285 275 263 250 241 237 230 227 226 222 220 220 223 222 217 218 220 221 235 240 231 240 249 241 239 243 246 254 256 258 269 280 293 299 305 308 304 308 320 323 319 324 336 339 335 334 335 335 336 335 335 334 331 329 326 324 321 318 315 313 310 309 307 307 307 306 305 304
278 284 290 295 301 308 310 307 302 300 293 285 286 287 281 282 289 289 280 267 254 245 239 230 227 228 225 220 218 223 227 226 229 230 229 234 232 229 241 243 233 231 238 247 255 249 250 261 272 288 295 296 301 300 302 311 312 307 309 322 329 329 330 332 334 335 336 336 336 335 333 330 328 326 323 321 318 315 313 311 309 308 308 306 305
276 277 279 287 294 302 310 309 303 298 291 281 278 276 271 268 269 270 264 256 253 247 239 232 228 227 223 219 220 223 227 230 234 235 234 231 227 231 243 240 237 240 241 243 248 249 259 268 267 276 285 287 288 293 300 303 303 304 303 307 317 322 322 324 327 328 330 331 331 331 329 328 326 324 322 320 318 316 314 313 312 310 309 308 306
267 266 269 279 291 302 307 305 298 292 287 279 275 272 266 262 259 255 250 247 245 240 234 228 225 225 219 214 218 218 217 221 225 225 227 229 231 241 250 242 245 250 237 229 243 257 263 271 274 275 278 281 283 288 298 304 307 308 304 302 313 318 313 314 320 321 323 326 327 327 326 324 322 320 319 317 315 314 312 311 310 309 308 307 306
258 258 264 274 285 295 298 297 294 289 283 276 270 267 261 258 254 248 246 243 237 233 229 222 219 220 214 210 208 203 202 205 206 209 218 227 236 250 255 245 252 255 229 221 245 262 263 268 274 278 278 279 284 289 295 305 310 308 302 300 309 312 307 309 315 316 317 319 321 322 322 321 320 317 316 314 312 311 309 308 307 306 305 305 304
257 259 264 274 282 288 291 291 290 286 281 275 268 262 257 254 251 246 243 240 233 229 223 218 216 212 205 203 202 200 199 194 197 209 219 228 238 249 253 247 256 266 243 236 251 261 267 272 273 279 284 284 285 288 291 298 306 307 302 298 304 308 304 305 309 309 309 312 313 315 317 316 316 315 313 312 310 309 307 306 305 303 303 302 302
259 260 263 271 277 282 287 287 287 284 278 273 269 262 255 249 247 244 243 240 232 227 222 218 217 213 205 200 205 213 210 208 220 226 228 242 249 251 257 256 260 270 267 262 261 264 269 272 273 278 284 285 281 281 288 294 302 305 300 293 298 301 298 299 303 303 303 306 307 309 311 311 311 311 309 308 307 306 305 303 302 301 300 300 300
260 261 261 265 267 270 275 278 283 285 278 271 267 262 255 247 243 243 242 237 230 227 226 223 222 222 219 218 225 230 228 238 251 245 249 261 255 246 255 263 265 272 275 270 265 265 268 271 273 273 280 288 283 279 286 292 298 303 300 295 297 298 295 295 298 299 300 302 303 305 307 307 309 308 306 304 304 304 303 302 300 299 298 297 297
259 260 258 258 258 259 263 268 276 281 278 271 264 259 252 242 240 243 240 234 230 228 230 231 231 234 236 238 245 247 244 251 256 254 262 270 264 256 262 267 268 270 275 275 269 265 268 273 274 270 276 288 285 282 286 288 293 298 297 296 296 297 298 299 298 297 298 299 301 302 304 305 307 307 305 304 304 303 302 302 300 299 297 297 296
257 257 254 252 253 255 257 262 269 272 272 269 263 257 250 242 240 242 240 236 235 235 238 241 242 245 247 248 253 255 253 255 257 257 263 270 273 270 267 268 270 267 269 274 274 269 269 272 274 274 279 284 282 284 286 284 290 295 293 293 296 297 301 303 303 301 298 297 299 300 301 303 305 305 305 305 305 303 302 301 300 299 297 297 297
253 254 253 250 251 253 256 259 262 264 265 263 259 253 248 243 243 244 244 242 241 244 248 250 250 252 255 255 257 258 257 258 260 260 261 267 272 272 269 267 268 268 266 269 273 275 275 276 276 278 285 287 286 289 290 286 291 296 292 292 296 298 299 302 304 304 301 299 299 299 299 300 302 303 303 304 304 303 301 300 299 298 297 297 297
253 255 255 253 252 254 256 257 257 257 258 255 252 250 247 246 248 250 250 248 248 251 255 257 257 258 260 260 260 261 260 260 262 263 263 266 267 270 273 270 268 269 269 267 270 274 276 280 280 280 283 287 289 291 292 291 295 297 294 292 295 297 300 302 305 306 304 301 299 299 298 298 300 301 302 303 303 302 300 299 298 298 298 297 297
256 256 256 255 254 255 257 256 254 254 253 250 248 249 251 252 252 254 255 254 255 257 259 260 261 262 263 264 264 265 264 263 263 265 266 267 266 268 272 271 269 270 269 269 271 272 273 278 282 282 282 284 286 288 290 292 294 294 293 294 295 297 299 302 304 305 303 301 300 299 298 297 298 300 301 302 302 301 298 296 296 296 295 295 295
257 257 257 255 254 255 257 257 256 254 252 250 249 251 253 254 255 257 258 258 259 261 262 262 264 265 264 265 267 269 268 266 265 266 266 267 267 269 270 269 269 268 267 270 272 272 272 275 279 281 281 282 284 286 289 292 293 292 293 294 294 296 298 301 303 303 301 299 299 299 298 297 298 299 300 300 300 299 296 294 293 293 292 292 292
257 257 257 256 256 256 257 258 258 256 254 253 252 252 254 255 256 258 259 261 261 262 263 262 263 264 264 265 268 270 270 269 267 267 268 268 268 269 269 268 266 265 266 269 270 271 273 275 279 282 283 283 284 286 290 293 294 294 293 294 294 295 298 300 302 302 301 299 299 299 299 298 298 298 299 299 298 298 296 294 293 292 291 291 291
259 259 259 258 258 258 259 260 260 259 258 257 256 255 255 257 258 259 260 261 262 263 263 263 262 262 263 265 267 268 269 269 269 268 269 269 269 269 269 267 264 263 265 267 268 270 271 274 279 282 285 288 290 290 292 294 294 294 295 295 296 297 298 300 301 301 300 300 299 299 300 300 299 298 298 298 298 297 296 294 293 292 291 291 290
260 261 262 262 261 261 262 263 263 262 260 260 260 259 258 259 259 259 260 261 262 262 263 263 263 262 263 265 266 267 268 268 268 269 270 269 270 271 269 266 264 264 266 267 267 269 270 272 275 279 283 288 290 290 292 293 292 294 295 297 298 299 300 300 300 300 300 301 300 300 300 301 300 299 299 299 298 297 296 295 294 293 292 291 290
262 263 263 263 263 264 264 264 266 266 264 263 263 262 260 259 259 259 261 261 262 263 263 263 264 264 264 265 265 266 268 269 268 268 269 269 270 270 268 264 262 263 265 267 268 269 270 271 274 278 282 285 287 288 290 292 293 295 296 298 299 300 300 301 300 299 300 301 300 299 300 301 300 299 299 299 298 297 296 296 295 294 292 291 289
266 266 266 266 265 264 265 265 266 268 267 265 262 260 259 260 261 263 264 264 265 265 266 265 264 264 264 265 266 268 269 268 268 269 268 269 270 269 265 262 261 262 264 266 267 268 270 271 273 277 281 283 285 287 289 292 295 297 298 298 299 300 300 300 299 298 299 300 299 298 298 300 300 298 297 297 296 296 295 295 295 294 292 290 290
269 269 269 269 267 266 266 266 266 267 267 266 262 261 261 262 264 266 266 267 268 268 268 267 266 265 265 265 266 267 268 268 269 269 268 269 269 267 263 261 260 261 263 264 266 267 269 270 272 275 279 283 284 286 290 293 296 297 298 298 298 299 299 298 298 298 299 299 299 297 297 297 298 297 296 296 296 295 295 295 295 294 293 291 291
271 271 272 272 272 270 269 268 267 267 267 265 264 264 264 264 264 265 266 267 269 269 269 269 270 269 267 266 266 267 269 269 268 267 267 267 266 263 261 261 260 262 264 265 267 269 270 271 271 274 279 283 284 287 291 294 296 297 297 298 298 298 298 298 298 299 299 299 298 297 296 297 297 296 296 296 295 295 295 295 295 295 294 293 292
274 273 274 274 274 273 271 270 269 269 268 266 265 265 265 265 265 266 266 267 268 269 270 271 272 271 268 267 268 269 269 268 267 266 265 263 260 259 260 260 261 263 265 266 268 271 272 272 273 276 280 282 284 287 291 293 295 296 297 298 298 299 299 299 299 300 300 300 299 298 297 297 297 296 296 296 295 295 295 295 296 295 294 294 293
276 275 275 275 274 274 273 272 271 271 270 268 267 266 265 264 265 266 266 266 267 268 269 270 271 270 268 267 268 269 268 266 265 264 262 259 258 259 260 259 260 262 264 266 269 271 272 273 275 278 280 282 285 288 291 293 294 295 296 297 298 299 300 300 300 300 300 300 300 299 299 298 298 297 296 296 295 295 295 295 295 295 295 295 294
276 275 275 275 275 274 274 273 272 271 271 270 269 268 266 264 265 266 266 266 266 267 268 269 270 269 268 268 268 267 266 263 261 261 260 258 257 258 258 257 258 260 263 265 269 271 273 275 278 280 282 284 286 289 291 292 293 294 295 297 299 300 300 300 300 300 300 300 301 301 299 298 298 297 297 297 296 295 295 295 295 295 295 295 294
275 275 275 275 274 274 273 272 271 271 271 270 269 269 268 266 266 266 265 265 266 267 267 268 268 268 268 268 267 265 263 260 258 257 257 256 256 256 256 256 258 260 264 267 270 272 275 277 279 281 283 285 287 289 291 292 293 294 295 297 298 299 300 300 300 300 300 300 301 302 300 298 298 298 298 297 296 295 295 296 296 296 296 295 295